SITRO-AIS 10 (BURDAEV)

Last updated on Sun Jun 21 2026 00:03:50 GMT+0000 (Coordinated Universal Time)

1 57199U 23091AK 26171.43590034 .00016933 00000+0 44399-3 0 9994 2 57199 97.5075 242.0561 0007284 70.7474 289.4558 15.38716536165262
UTC large
Height (km)
Speed (km/s)
/
Latitude / Longitude
Inclination (degrees)
Orbital Period (minutes)
Azimuth
Elevation
Range (km)
Doppler Factor

Next 0 passes for location: London (51.5072 / 0.1276)

No passes found over London.
SITRO-AIS 10 (BURDAEV)